Location: Ellerstadt
(49.4644°N, 8.2615°E)
Time: 20:30:24
(UTC+00:00)

Vanguard 1 - Pass Details

Date: 22 June 2021
Orbit: 651 x 3831 km, 34.2° (Epoch: 29 July)

Event Time Altitude Azimuth Distance (km) Brightness Sun altitude
Rises 20:25:24 0° 237° (WSW) 7,820 14.8 -6.5°
Reaches altitude 10° 20:30:58 10° 232° (SW) 6,908 14.4 -7.1°
Maximum altitude 20:52:12 46° 169° (SSE) 4,184 12.8 -9.2°
Drops below altitude 10° 21:07:51 10° 103° (ESE) 5,235 13.3 -10.6°
Sets 21:11:20 0° 97° (E) 5,879 13.7 -10.9°
